Location: ??????
(56.0120°N, 39.1740°E)
Time: 20:57:29
(UTC+00:00)

Cosmos 2327 Rocket - Pass Details

Date: 14 April 2026
Orbit: 944 x 1006 km, 83.0° (Epoch: 16 May)

Event Time Altitude Azimuth Distance (km) Brightness Sun altitude
Rises 17:28:34 0° 183° (S) 3,634 7.2 -8.5°
Reaches altitude 10° 17:31:02 10° 182° (S) 2,700 6.5 -8.8°
Maximum altitude 17:37:13 77° 98° (E) 1,008 4.5 -9.5°
Drops below altitude 10° 17:43:33 10° 13° (NNE) 2,762 7.2 -10.2°
Sets 17:46:06 0° 13° (NNE) 3,723 7.9 -10.5°
